TimeAKST,TemperatureF,Dew PointF,Humidity,Sea Level PressureIn,VisibilityMPH,Wind Direction,Wind SpeedMPH,Gust SpeedMPH,PrecipitationIn,Events,Conditions,WindDirDegrees,DateUTC
12:25 AM,41.0,37.4,87,29.04,10.0,SSE,17.3,27.6,0.01,Rain,Light Rain,150,2012-12-29 09:25:00
12:53 AM,41.0,37.9,89,29.06,7.0,SE,17.3,32.2,0.01,Rain,Light Rain,140,2012-12-29 09:53:00
1:13 AM,39.2,37.4,93,29.06,7.0,SE,13.8,25.3,0.00,Rain,Light Rain,140,2012-12-29 10:13:00
1:23 AM,39.2,37.4,93,29.06,5.0,SE,16.1,28.8,0.01,Rain,Light Rain,140,2012-12-29 10:23:00
1:53 AM,39.9,37.0,89,29.05,7.0,SSE,32.2,44.9,0.03,Rain,Light Rain,150,2012-12-29 10:53:00
2:33 AM,39.2,35.6,87,29.05,5.0,SSE,19.6,36.8,0.00,Rain,Light Rain,150,2012-12-29 11:33:00
2:48 AM,39.2,35.6,87,29.04,7.0,SSE,20.7,33.4,0.00,Rain,Light Rain,150,2012-12-29 11:48:00
3:53 AM,39.9,35.1,83,29.04,7.0,South,25.3,35.7,0.04,Rain,Light Rain,180,2012-12-29 12:53:00
4:31 AM,39.2,33.8,81,29.08,10.0,South,16.1,31.1,0.00,Rain,Light Rain,180,2012-12-29 13:31:00
4:53 AM,39.9,34.0,79,29.10,10.0,South,15.0,26.5,0.00,Rain,Light Rain,190,2012-12-29 13:53:00
5:00 AM,39.2,33.8,81,29.11,10.0,SSW,16.1,31.1,0.00,Rain,Light Rain,210,2012-12-29 14:00:00
5:53 AM,41.0,33.1,73,29.18,10.0,SSE,15.0,26.5,0.00,,Overcast,160,2012-12-29 14:53:00
6:53 AM,39.9,34.0,79,29.25,10.0,South,15.0,20.7,0.00,Rain,Light Rain,170,2012-12-29 15:53:00
7:53 AM,41.0,33.1,73,29.28,10.0,SSE,13.8,-,0.00,,Mostly Cloudy,150,2012-12-29 16:53:00
8:53 AM,39.9,33.1,77,29.29,10.0,South,19.6,28.8,N/A,,Mostly Cloudy,180,2012-12-29 17:53:00
9:53 AM,39.9,34.0,79,29.34,10.0,SSE,19.6,28.8,N/A,,Mostly Cloudy,150,2012-12-29 18:53:00
10:53 AM,39.0,34.0,82,29.37,10.0,South,15.0,-,0.00,,Overcast,190,2012-12-29 19:53:00
11:53 AM,39.9,34.0,79,29.39,10.0,SSE,10.4,-,N/A,,Overcast,150,2012-12-29 20:53:00
12:53 PM,37.9,34.0,86,29.37,10.0,South,8.1,-,N/A,,Overcast,180,2012-12-29 21:53:00
1:53 PM,37.0,34.0,89,29.34,8.0,ENE,5.8,-,N/A,,Overcast,60,2012-12-29 22:53:00
2:53 PM,37.9,37.0,97,29.29,9.0,NNE,9.2,-,N/A,,Overcast,20,2012-12-29 23:53:00
3:53 PM,39.0,36.0,89,29.28,8.0,NE,18.4,-,N/A,,Overcast,50,2012-12-30 00:53:00
4:53 PM,39.0,37.0,93,29.19,9.0,NE,24.2,-,0.00,,Overcast,40,2012-12-30 01:53:00
5:32 PM,39.2,37.4,93,29.12,3.0,NE,29.9,40.3,0.00,Rain,Light Rain,40,2012-12-30 02:32:00
5:53 PM,39.0,37.9,96,29.10,3.0,NE,29.9,43.7,0.00,Rain,Light Rain,40,2012-12-30 02:53:00
6:04 PM,39.2,37.4,93,29.09,7.0,NE,34.5,42.6,0.00,Rain,Light Rain,40,2012-12-30 03:04:00
6:53 PM,39.0,37.9,96,29.02,3.0,NE,31.1,46.0,0.12,Rain,Light Rain,40,2012-12-30 03:53:00
7:30 PM,39.2,39.2,100,29.00,2.0,NE,31.1,40.3,0.09,Rain,Light Rain,40,2012-12-30 04:30:00
7:53 PM,39.9,39.0,97,28.97,2.0,NE,32.2,40.3,0.17,Rain,Light Rain,50,2012-12-30 04:53:00
8:53 PM,39.9,39.9,100,28.88,2.0,NE,27.6,35.7,0.09,Rain,Rain,50,2012-12-30 05:53:00
9:28 PM,39.2,39.2,100,28.83,1.8,ENE,26.5,33.4,0.06,Rain,Light Rain,60,2012-12-30 06:28:00
9:37 PM,41.0,39.2,93,28.82,2.0,ENE,28.8,34.5,0.07,Rain,Light Rain,60,2012-12-30 06:37:00
9:53 PM,41.0,39.9,96,28.80,2.5,ENE,26.5,36.8,0.10,Rain,Light Rain,60,2012-12-30 06:53:00
9:55 PM,41.0,39.2,93,28.80,3.0,ENE,25.3,36.8,0.00,Rain,Light Rain,60,2012-12-30 06:55:00
10:02 PM,41.0,39.2,93,28.79,2.0,ENE,26.5,36.8,0.00,Rain,Light Rain,60,2012-12-30 07:02:00
10:53 PM,41.0,41.0,100,28.75,1.0,ENE,29.9,38.0,0.05,Rain,Light Rain,60,2012-12-30 07:53:00
11:34 PM,42.8,41.0,93,28.72,3.0,ENE,23.0,32.2,0.01,,Overcast,70,2012-12-30 08:34:00
11:53 PM,41.0,41.0,100,28.69,3.0,ENE,26.5,35.7,0.01,Rain,Light Rain,70,2012-12-30 08:53:00